GW3308 Weather Reports


time (UTC)temp
F
wind
direction
speed
knots
gust
knots
rain 1hr
in
rain 24hr
in
rain mn
in
humidity
%
barometer
mb
20260509150512 49 231 0.9 7.0 0.00 0.00 0.00 66 1000.7
20260509150021 49 252 0.9 7.8 0.00 0.00 0.00 66 1000.8
20260509145508 49 263 3.5 10.4 0.00 0.00 0.00 65 1000.8
20260509145007 49 273 2.6 10.4 0.00 0.00 0.00 65 1000.8
20260509144524 49 217 2.6 8.7 0.00 0.00 0.00 66 1000.7
20260509144007 50 304 2.6 7.8 0.00 0.00 0.00 67 1000.5
20260509143508 50 92 1.7 13.9 0.00 0.00 0.00 67 1000.4
20260509143024 51 163 6.1 13.9 0.00 0.00 0.00 66 1000.3
20260509142509 51 248 5.2 12.2 0.00 0.00 0.00 66 1000.1
20260509142012 52 145 3.5 12.2 0.00 0.00 0.00 66 1000.0
20260509141535 52 192 6.1 11.3 0.00 0.00 0.00 65 999.7
20260509141010 53 194 3.5 10.4 0.00 0.00 0.00 66 999.5
20260509140506 53 319 0.0 10.4 0.00 0.00 0.00 67 999.0
20260509140016 53 226 2.6 10.4 0.00 0.00 0.00 67 998.9
20260509135505 53 222 2.6 8.7 0.00 0.00 0.00 70 998.8
20260509135005 53 229 2.6 9.6 0.00 0.00 0.00 70 998.7
20260509134522 53 225 3.5 9.6 0.00 0.00 0.00 71 998.7
20260509134009 53 290 3.5 9.6 0.00 0.00 0.00 71 998.6
20260509133506 53 246 4.3 8.7 0.00 0.00 0.00 72 998.7
20260509133025 53 225 3.5 7.8 0.00 0.00 0.00 72 998.5
20260509132512 53 252 2.6 10.4 0.00 0.00 0.00 72 998.4
20260509132009 53 272 4.3 10.4 0.00 0.00 0.00 72 998.3
20260509131527 53 217 1.7 9.6 0.00 0.00 0.00 73 998.2
20260509131010 53 233 4.3 11.3 0.00 0.00 0.00 73 998.1
20260509130509 53 230 2.6 11.3 0.00 0.00 0.00 73 998.2
20260509130027 54 246 2.6 8.7 0.00 0.00 0.00 73 998.0
20260509125506 54 251 2.6 9.6 0.00 0.00 0.00 74 998.0
20260509125007 54 221 3.5 9.6 0.00 0.00 0.00 73 998.0
20260509124521 54 281 2.6 8.7 0.00 0.00 0.00 74 998.2
20260509124008 53 259 4.3 11.3 0.00 0.00 0.00 75 997.9
20260509123508 53 221 3.5 11.3 0.00 0.00 0.00 76 998.0
20260509123025 53 240 2.6 6.1 0.00 0.00 0.00 75 998.0
20260509122508 52 275 1.7 6.1 0.00 0.00 0.00 75 998.2
20260509122008 52 237 0.9 9.6 0.00 0.00 0.00 76 998.3
20260509121526 52 242 1.7 9.6 0.00 0.00 0.00 76 998.2
20260509121015 52 224 1.7 7.8 0.00 0.00 0.00 76 998.2
20260509120509 52 248 2.6 6.1 0.00 0.00 0.00 75 998.1
20260509120028 51 230 2.6 9.6 0.00 0.00 0.00 75 998.0
20260509115509 51 272 2.6 9.6 0.00 0.00 0.00 75 998.2
20260509115012 51 255 2.6 5.2 0.00 0.00 0.00 75 998.3
20260509114516 51 261 0.0 7.8 0.00 0.00 0.00 74 998.4
20260509114007 51 221 2.6 7.8 0.00 0.00 0.00 73 998.3
20260509113507 51 223 2.6 7.0 0.00 0.00 0.00 73 998.3
20260509113020 51 219 2.6 4.3 0.00 0.00 0.00 73 998.3
20260509112508 51 232 0.9 3.5 0.00 0.00 0.00 72 998.3
20260509112010 51 229 1.7 7.0 0.00 0.00 0.00 72 998.4
20260509111526 51 254 1.7 7.0 0.00 0.00 0.00 71 998.3
20260509111008 51 198 2.6 7.0 0.00 0.00 0.00 70 998.4
20260509110510 51 240 2.6 6.1 0.00 0.00 0.00 70 998.3
20260509110025 51 206 1.7 4.3 0.00 0.00 0.00 69 998.3
20260509105511 51 209 1.7 3.5 0.00 0.00 0.00 69 998.4
20260509105011 51 200 0.9 6.1 0.00 0.00 0.00 69 998.4
20260509104528 51 196 1.7 6.1 0.00 0.00 0.00 67 998.6
20260509104005 51 182 1.7 7.0 0.00 0.00 0.00 67 998.6
20260509103503 52 172 1.7 7.0 0.00 0.00 0.00 66 998.6
20260509103017 52 234 3.5 7.0 0.00 0.00 0.00 66 998.8
20260509102506 52 194 1.7 6.1 0.00 0.00 0.00 66 998.9
20260509102006 52 189 1.7 6.1 0.00 0.00 0.00 65 998.9
20260509101506 53 236 0.9 6.1 0.00 0.00 0.00 64 998.8
20260509101002 53 178 1.7 7.8 0.00 0.00 0.00 65 998.8
20260509100504 53 199 1.7 7.8 0.00 0.00 0.00 64 998.7
20260509100006 53 200 2.6 5.2 0.00 0.00 0.00 63 998.8
20260509095504 53 181 2.6 8.7 0.00 0.00 0.00 63 998.8
20260509095005 54 254 4.3 8.7 0.00 0.00 0.00 62 999.0
20260509094514 54 188 4.3 9.6 0.00 0.00 0.00 62 999.1
20260509094003 54 213 3.5 9.6 0.00 0.00 0.00 62 999.1
20260509093507 54 245 2.6 8.7 0.00 0.00 0.00 61 999.2
20260509093017 53 256 1.7 7.0 0.00 0.00 0.00 59 998.8
20260509092505 53 207 2.6 7.8 0.00 0.00 0.00 59 998.9
20260509092006 53 202 2.6 7.8 0.00 0.00 0.00 58 998.8
20260509091520 53 253 1.7 7.8 0.00 0.00 0.00 57 999.1
20260509091006 53 199 2.6 7.0 0.00 0.00 0.00 56 999.2
20260509090507 53 231 0.9 6.1 0.00 0.00 0.00 56 999.3
20260509090008 53 190 1.7 6.1 0.00 0.00 0.00 55 999.3
20260509085503 52 261 0.9 6.1 0.00 0.00 0.00 56 999.3
20260509085004 53 186 0.0 2.6 0.00 0.00 0.00 56 999.5
20260509084508 53 186 0.0 4.3 0.00 0.00 0.00 56 999.6
20260509084006 53 202 0.0 4.3 0.00 0.00 0.00 57 999.7
20260509083504 53 202 0.9 7.0 0.00 0.00 0.00 56 999.7
20260509083012 53 223 0.9 7.0 0.00 0.00 0.00 56 999.7
20260509082504 53 211 1.7 6.1 0.00 0.00 0.00 54 999.9
20260509082008 53 199 2.6 7.0 0.00 0.00 0.00 53 1000.2
20260509081521 53 209 3.5 7.8 0.00 0.00 0.00 52 1000.2
20260509081007 53 207 1.7 7.8 0.00 0.00 0.00 51 1000.2
20260509080507 53 261 1.7 7.8 0.00 0.00 0.00 50 1000.3
20260509080020 53 218 2.6 7.8 0.00 0.00 0.00 49 1000.2
20260509075507 53 220 2.6 7.0 0.00 0.00 0.00 47 1000.3
20260509075006 53 213 1.7 4.3 0.00 0.00 0.00 45 1000.3
20260509074507 53 209 2.6 6.1 0.00 0.00 0.00 44 1000.3
20260509074004 53 243 2.6 6.1 0.00 0.00 0.00 43 1000.4
20260509073503 53 216 2.6 6.1 0.00 0.00 0.00 42 1000.5
20260509073025 53 211 0.9 6.1 0.00 0.00 0.00 42 1000.5
20260509072506 53 206 1.7 6.1 0.00 0.00 0.00 39 1000.7
20260509072006 53 201 1.7 4.3 0.00 0.00 0.00 39 1000.8
20260509071515 53 223 0.9 4.3 0.00 0.00 0.00 39 1000.9
20260509071007 53 207 1.7 7.0 0.00 0.00 0.00 37 1001.1
20260509070507 53 217 1.7 7.0 0.00 0.00 0.00 37 1001.2
20260509070020 53 204 1.7 7.8 0.00 0.00 0.00 36 1001.4
20260509065508 54 225 4.3 7.8 0.00 0.00 0.00 35 1001.5
20260509065007 54 249 1.7 8.7 0.00 0.00 0.00 37 1001.5
20260509064522 54 216 3.5 8.7 0.00 0.00 0.00 34 1001.7
20260509064013 54 227 0.9 4.3 0.00 0.00 0.00 36 1001.7
20260509063509 54 203 1.7 4.3 0.00 0.00 0.00 36 1001.8
20260509063021 54 192 1.7 7.0 0.00 0.00 0.00 36 1001.9
20260509062505 54 196 2.6 7.0 0.00 0.00 0.00 38 1002.2
20260509062008 54 206 0.0 4.3 0.00 0.00 0.00 40 1002.3
20260509061516 54 234 1.7 6.1 0.00 0.00 0.00 39 1002.4
20260509061006 54 231 1.7 7.0 0.00 0.00 0.00 39 1002.5
20260509060505 54 223 2.6 7.0 0.00 0.00 0.00 39 1002.5
20260509060026 54 254 2.6 7.0 0.00 0.00 0.00 41 1002.5
20260509055507 54 214 2.6 6.1 0.00 0.00 0.00 40 1002.5
20260509055008 54 223 1.7 6.1 0.00 0.00 0.00 40 1002.4
20260509054524 54 214 2.6 7.0 0.00 0.00 0.00 39 1002.4
20260509054009 54 252 1.7 7.8 0.00 0.00 0.00 38 1002.3
20260509053507 54 217 1.7 7.8 0.00 0.00 0.00 38 1002.5
20260509053032 54 225 2.6 7.8 0.00 0.00 0.00 37 1002.5
20260509052506 54 246 2.6 8.7 0.00 0.00 0.00 37 1002.6
20260509052006 54 232 4.3 8.7 0.00 0.00 0.00 37 1002.6
20260509051515 53 210 0.9 5.2 0.00 0.00 0.00 39 1002.7
20260509051004 53 200 1.7 5.2 0.00 0.00 0.00 40 1002.7
20260509050504 53 210 0.9 3.5 0.00 0.00 0.00 41 1002.9
20260509050016 53 185 1.7 3.5 0.00 0.00 0.00 39 1003.0
20260509045506 53 246 0.9 5.2 0.00 0.00 0.00 40 1003.1
20260509045006 53 254 1.7 5.2 0.00 0.00 0.00 40 1003.2
20260509044521 54 205 0.0 2.6 0.00 0.00 0.00 40 1003.3
20260509044010 54 213 0.0 2.6 0.00 0.00 0.00 40 1003.4
20260509043506 54 223 0.0 2.6 0.00 0.00 0.00 38 1003.4
20260509043038 55 216 0.9 2.6 0.00 0.00 0.00 38 1003.4
20260509042507 55 188 0.0 4.3 0.00 0.00 0.00 38 1003.6
20260509042007 55 202 0.9 4.3 0.00 0.00 0.00 39 1003.8
20260509041524 55 202 0.9 4.3 0.00 0.00 0.00 38 1004.0
20260509041008 55 288 0.9 8.7 0.00 0.00 0.00 37 1004.0
20260509040502 55 288 3.5 8.7 0.00 0.00 0.00 36 1004.0
20260509040013 55 217 1.7 4.3 0.00 0.00 0.00 37 1004.0
20260509035507 54 253 0.9 4.3 0.00 0.00 0.00 37 1004.0
20260509035007 54 227 0.9 4.3 0.00 0.00 0.00 38 1004.0
20260509034520 55 197 0.9 5.2 0.00 0.00 0.00 37 1004.0
20260509034006 55 232 1.7 5.2 0.00 0.00 0.00 38 1004.1
20260509033510 54 208 1.7 5.2 0.00 0.00 0.00 37 1004.1
20260509033023 54 235 2.6 5.2 0.00 0.00 0.00 38 1004.1
20260509032508 54 212 1.7 5.2 0.00 0.00 0.00 39 1004.1
20260509032011 54 209 1.7 4.3 0.00 0.00 0.00 40 1004.2
20260509031529 54 209 0.9 3.5 0.00 0.00 0.00 40 1004.2
20260509031011 54 217 0.0 3.5 0.00 0.00 0.00 40 1004.2
20260509030509 54 257 0.0 0.0 0.00 0.00 0.00 41 1004.3
20260509030027 54 263 0.0 0.0 0.00 0.00 0.00 41 1004.3
20260509025507 54 196 0.0 0.9 0.00 0.00 0.00 41 1004.4
20260509025009 54 232 0.0 1.7 0.00 0.00 0.00 39 1004.4
20260509024519 54 232 0.0 1.7 0.00 0.00 0.00 42 1004.5
20260509024008 54 208 0.0 2.6 0.00 0.00 0.00 41 1004.5
20260509023506 54 208 0.0 2.6 0.00 0.00 0.00 40 1004.5
20260509023025 54 235 0.0 2.6 0.00 0.00 0.00 40 1004.5
20260509022508 54 235 0.9 2.6 0.00 0.00 0.00 39 1004.5
20260509022010 54 226 0.0 1.7 0.00 0.00 0.00 41 1004.4
20260509021524 54 226 0.0 3.5 0.00 0.00 0.00 41 1004.4
20260509021009 54 226 0.0 3.5 0.00 0.00 0.00 40 1004.5
20260509020506 54 227 0.0 0.0 0.00 0.00 0.00 41 1004.5
20260509020027 54 239 0.0 0.0 0.00 0.00 0.00 43 1004.5
20260509015508 54 225 0.0 0.0 0.00 0.00 0.00 42 1004.5
20260509015011 54 225 0.0 0.0 0.00 0.00 0.00 42 1004.5
20260509014528 54 225 0.0 0.0 0.00 0.00 0.00 42 1004.5
20260509014005 55 225 0.0 0.0 0.00 0.00 0.00 40 1004.5
20260509013509 55 225 0.0 0.0 0.00 0.00 0.00 39 1004.5
20260509013017 56 225 0.0 0.0 0.00 0.00 0.00 39 1004.6
20260509012507 56 237 0.0 3.5 0.00 0.00 0.00 38 1004.5
20260509012003 56 227 0.0 5.2 0.00 0.00 0.00 38 1004.5
20260509011504 56 220 0.9 5.2 0.00 0.00 0.00 36 1004.6
20260509011004 57 233 0.0 3.5 0.00 0.00 0.00 37 1004.7
20260509010504 57 233 0.9 3.5 0.00 0.00 0.00 35 1004.5
20260509010007 57 223 0.0 4.3 0.00 0.00 0.00 36 1004.5
20260509005504 57 230 2.6 4.3 0.00 0.00 0.00 34 1004.6
20260509005003 57 223 0.9 4.3 0.00 0.00 0.00 35 1004.5
20260509004513 57 250 0.9 3.5 0.00 0.00 0.00 36 1004.5
20260509004003 57 236 0.9 3.5 0.00 0.00 0.00 36 1004.4
20260509003504 57 227 0.9 3.5 0.00 0.00 0.00 35 1004.4
20260509003016 57 225 0.9 6.1 0.00 0.00 0.00 35 1004.4
20260509002511 57 236 0.9 6.1 0.00 0.00 0.00 35 1004.4
20260509002007 58 248 2.6 5.2 0.00 0.00 0.00 34 1004.4
20260509001520 58 209 1.7 3.5 0.00 0.00 0.00 36 1004.4
20260509001003 58 220 1.7 3.5 0.00 0.00 0.00 35 1004.5
20260509000502 58 224 0.9 4.3 0.00 0.00 0.00 36 1004.5
20260509000004 58 214 1.7 4.3 0.00 0.00 0.00 33 1004.5
20260508235504 58 244 0.0 4.3 0.00 0.00 0.00 34 1004.6
20260508235004 58 234 0.9 7.0 0.00 0.00 0.00 34 1004.6
20260508234527 58 264 0.9 7.0 0.00 0.00 0.00 34 1004.7
20260508234004 58 217 1.7 6.1 0.00 0.00 0.00 33 1004.6
20260508233505 58 323 2.6 6.1 0.00 0.00 0.00 33 1004.7
20260508233014 58 281 1.7 7.8 0.00 0.00 0.00 34 1004.7
20260508232505 59 246 3.5 7.8 0.00 0.00 0.00 32 1004.7
20260508232006 59 212 0.9 6.1 0.00 0.00 0.00 33 1004.8
20260508231517 59 201 1.7 7.0 0.00 0.00 0.00 33 1004.9
20260508231010 59 207 2.6 7.0 0.00 0.00 0.00 32 1004.7
20260508230507 59 243 0.0 6.1 0.00 0.00 0.00 34 1004.8
20260508230024 59 207 0.9 6.1 0.00 0.00 0.00 33 1004.7
20260508225506 59 242 2.6 6.1 0.00 0.00 0.00 33 1004.7
20260508225004 59 219 2.6 7.0 0.00 0.00 0.00 32 1004.7
20260508224516 59 255 2.6 10.4 0.00 0.00 0.00 32 1004.8
20260508224006 59 252 4.3 10.4 0.00 0.00 0.00 31 1004.8
20260508223503 60 198 2.6 7.0 0.00 0.00 0.00 32 1004.8
20260508223010 60 199 4.3 7.8 0.00 0.00 0.00 31 1004.8
20260508222504 61 246 2.6 9.6 0.00 0.00 0.00 32 1004.8
20260508222005 61 228 3.5 11.3 0.00 0.00 0.00 32 1004.9
20260508221513 61 272 4.3 13.9 0.00 0.00 0.00 30 1004.9
20260508221008 61 202 4.3 13.9 0.00 0.00 0.00 31 1004.9
20260508220507 61 280 5.2 12.2 0.00 0.00 0.00 30 1004.9
20260508220020 61 273 5.2 12.2 0.00 0.00 0.00 29 1005.0
20260508215507 61 350 3.5 13.0 0.00 0.00 0.00 31 1005.1
20260508215007 61 194 0.9 13.0 0.00 0.00 0.00 32 1005.1
20260508214527 61 271 4.3 7.8 0.00 0.00 0.00 29 1005.1
20260508214003 61 228 4.3 9.6 0.00 0.00 0.00 30 1005.1
20260508213504 60 360 3.5 13.0 0.00 0.00 0.00 30 1005.1
20260508213028 60 315 4.3 13.0 0.00 0.00 0.00 29 1005.2
20260508212503 61 253 5.2 11.3 0.00 0.00 0.00 30 1005.2
20260508212005 61 330 2.6 11.3 0.00 0.00 0.00 32 1005.2
20260508211516 61 229 4.3 11.3 0.00 0.00 0.00 30 1005.3
20260508211006 61 288 3.5 10.4 0.00 0.00 0.00 30 1005.2
20260508210506 61 249 3.5 10.4 0.00 0.00 0.00 29 1005.3
20260508210030 62 202 3.5 8.7 0.00 0.00 0.00 29 1005.4
20260508205506 61 275 1.7 10.4 0.00 0.00 0.00 30 1005.2
20260508205010 61 254 1.7 10.4 0.00 0.00 0.00 30 1005.3
20260508204524 61 251 3.5 13.9 0.00 0.00 0.00 29 1005.5
20260508204010 60 218 4.3 13.9 0.00 0.00 0.00 29 1005.5
20260508203508 61 248 5.2 13.0 0.00 0.00 0.00 28 1005.6
20260508203004 61 250 4.3 13.0 0.00 0.00 0.00 29 1005.6
20260508202504 60 227 7.0 13.0 0.00 0.00 0.00 28 1005.7
20260508202003 61 234 5.2 10.4 0.00 0.00 0.00 28 1005.8
20260508201509 61 229 1.7 11.3 0.00 0.00 0.00 29 1005.7
20260508201004 60 336 4.3 11.3 0.00 0.00 0.00 29 1005.9
20260508200503 60 229 3.5 15.6 0.00 0.00 0.00 29 1006.0
20260508200015 60 223 5.2 15.6 0.00 0.00 0.00 29 1006.1
20260508195507 60 269 3.5 12.2 0.00 0.00 0.00 30 1006.1
20260508195007 60 170 5.2 14.8 0.00 0.00 0.00 29 1006.1
20260508194522 60 257 5.2 19.1 0.00 0.00 0.00 30 1006.2
20260508194007 59 219 5.2 19.1 0.00 0.00 0.00 30 1006.2
20260508193508 60 275 6.1 17.4 0.00 0.00 0.00 29 1006.4
20260508193022 60 215 6.1 9.6 0.00 0.00 0.00 30 1006.2
20260508192508 59 271 3.5 15.6 0.00 0.00 0.00 30 1006.4
20260508192008 59 236 6.1 15.6 0.00 0.00 0.00 30 1006.5
20260508191506 59 202 5.2 13.0 0.00 0.00 0.00 30 1006.6
20260508191004 59 5 5.2 13.9 0.00 0.00 0.00 30 1006.5
20260508190505 59 207 5.2 13.9 0.00 0.00 0.00 30 1006.6
20260508190010 60 200 4.3 13.9 0.00 0.00 0.00 29 1006.6
20260508185509 59 222 5.2 13.9 0.00 0.00 0.00 29 1006.7
20260508185005 60 193 2.6 10.4 0.00 0.00 0.00 30 1006.7
20260508184520 59 232 5.2 11.3 0.00 0.00 0.00 30 1006.8
20260508184006 59 203 5.2 13.0 0.00 0.00 0.00 29 1006.8
20260508183508 59 238 4.3 13.0 0.00 0.00 0.00 32 1006.9
20260508183023 59 231 3.5 13.9 0.00 0.00 0.00 31 1006.9
20260508182508 58 217 4.3 13.9 0.00 0.00 0.00 31 1007.0
20260508182009 59 249 5.2 11.3 0.00 0.00 0.00 33 1007.1
20260508181535 59 5 3.5 9.6 0.00 0.00 0.00 32 1007.2
20260508181009 59 188 1.7 14.8 0.00 0.00 0.00 33 1007.2
20260508180504 59 275 7.8 14.8 0.00 0.00 0.00 30 1007.3
20260508180013 59 238 3.5 12.2 0.00 0.00 0.00 32 1007.3
20260508175504 58 207 6.1 13.0 0.00 0.00 0.00 31 1007.4
20260508175004 58 229 7.0 16.5 0.00 0.00 0.00 31 1007.4
20260508174519 58 195 5.2 16.5 0.00 0.00 0.00 31 1007.3
20260508174005 58 219 4.3 13.0 0.00 0.00 0.00 30 1007.5
20260508173509 57 220 2.6 13.9 0.00 0.00 0.00 32 1007.7
20260508173021 58 277 6.1 13.9 0.00 0.00 0.00 29 1007.6
20260508172511 58 334 4.3 13.9 0.00 0.00 0.00 31 1007.7
20260508172009 58 284 7.0 18.2 0.00 0.00 0.00 31 1007.7
20260508171526 58 196 6.1 18.2 0.00 0.00 0.00 29 1007.9
20260508171010 58 208 1.7 13.0 0.00 0.00 0.00 31 1007.7
20260508170512 57 234 5.2 12.2 0.00 0.00 0.00 31 1007.9
20260508170026 57 234 4.3 12.2 0.00 0.00 0.00 32 1008.0
20260508165508 57 228 3.5 15.6 0.00 0.00 0.00 32 1008.1
20260508165005 57 237 7.8 15.6 0.00 0.00 0.00 32 1008.1
20260508164514 57 234 5.2 15.6 0.00 0.00 0.00 34 1008.2
20260508164004 57 202 4.3 12.2 0.00 0.00 0.00 33 1008.3
20260508163505 57 253 4.3 12.2 0.00 0.00 0.00 33 1008.2
20260508163018 57 248 4.3 13.9 0.00 0.00 0.00 35 1008.2
20260508162507 56 199 6.1 13.9 0.00 0.00 0.00 34 1008.4
20260508162006 56 192 2.6 14.8 0.00 0.00 0.00 32 1008.3
20260508161537 56 198 3.5 14.8 0.00 0.00 0.00 33 1008.4
20260508161008 56 223 4.3 14.8 0.00 0.00 0.00 34 1008.5
20260508160503 56 212 4.3 14.8 0.00 0.00 0.00 35 1008.6
20260508160004 56 146 4.3 13.9 0.00 0.00 0.00 35 1008.6
20260508155504 56 212 4.3 13.9 0.00 0.00 0.00 37 1008.6
20260508155004 56 190 3.5 13.9 0.00 0.00 0.00 38 1008.6
20260508154509 56 179 2.6 14.8 0.00 0.00 0.00 37 1008.6
20260508154005 55 269 5.2 14.8 0.00 0.00 0.00 36 1008.7
20260508153505 55 261 6.1 13.0 0.00 0.00 0.00 36 1008.7
20260508153025 55 248 3.5 12.2 0.00 0.00 0.00 37 1008.7
20260508152505 54 219 6.1 12.2 0.00 0.00 0.00 37 1008.7
20260508152009 54 283 5.2 13.9 0.00 0.00 0.00 39 1008.7
20260508151517 54 268 4.3 13.9 0.00 0.00 0.00 40 1008.7
20260508151006 54 276 4.3 13.9 0.00 0.00 0.00 41 1008.8